User: anonymous   Login
Location: Prague
(50.0830°N, 14.4670°E)
Time: 17:59:25
(UTC+01:00)
Language:

NUDT-PHONESAT - Orbit

View from above orbital plane
View from above orbital plane
View from above satellite
View from above satellite

Ground track
Ground track

The orbit data is extracted from the following two-line orbital elements,

1 40900U 15049B   21337.08997751  .00008420  00000-0  30726-3 0  9999
2 40900  97.4143 350.2386 0009420 263.0551 172.3989 15.28351151344560
Epoch (UTC): 03 December 2021 02:09:34
Eccentricity: 0.0009420
inclination: 97.4143°
perigee height: 474 km
apogee height: 487 km
right ascension of ascending node: 350.2386°
argument of perigee: 263.0551°
revolutions per day: 15.28351151
mean anomaly at epoch: 172.3989°
orbit number at epoch: 34456

The dashed part of the orbit path shows where the satellite is in the earth's shadow,  

DLR